CAPE
0 0 0 0 0 0 0 0 0 0 0 0 0 0 0 0 1 1 0 0 0 0
0 0 0 0 0 0 0 0 0 0 0 0 0 0 0 1 0 1 0 0 1 1
0 0 0 0 0 0 0 0 0 0 0 0 0 0 1 1 0 1 1 1 1 1
0 0 0 0 0 0 0 0 0 0 0 0 0 0 0 0 1 1 1 1 2 2
0 0 0 0 0 0 0 0 0 0 0 0 0 0 0 0 1 1 1 0 1 3
0 0 0 0 0 0 0 0 0 0 0 0 0 0 0 0 0 1 1 2 2 2
0 0 0 0 0 0 0 0 0 0 0 0 0 0 0 0 0 1 0 2 1 1
0 0 0 0 0 0 0 0 0 0 0 0 0 0 0 0 0 2 2 0 0 1
0 0 0 0 0 0 0 0 0 0 0 0 0 0 1 1 0 0 0 3 3 2
0 0 0 0 0 0 0 0 0 0 0 0 0 0 1 0 0 0 0 0 1 0
0 0 0 0 0 0 0 0 0 0 0 0 0 0 0 0 0 0 0 0 0 0
0 0 0 0 0 0 0 0 0 0 0 0 0 0 0 0 0 0 0 0 0 0
0 0 0 0 0 0 0 0 0 0 0 0 0 0 0 0 0 0 0 0 0 1
0 0 0 0 0 0 0 0 0 0 0 0 0 0 0 0 0 0 0 0 0 1
CIN
-0 -0 -0 -0 -0 -0 -0 -0 -0 -0 -0 -0 -0 -0 -0 -0 -0 -0 -0 -0 -0 -0
-0 -0 -0 -0 -0 -0 -0 -0 -0 -0 -0 -0 -0 -0 -0 -0 -0 -0 -0 -0 -0 -0
-0 -0 -0 -0 -0 -0 -0 -0 -0 -0 -0 -0 -0 -0 -0 -0 -0 -0 -0 -0 -0 -0
-0 -0 -0 -0 -0 -0 -0 -0 -0 -0 -0 -0 -0 -0 -0 -0 -0 -0 -0 -0 -0 -0
-0 -0 -0 -0 -0 -0 -0 -0 -0 -0 -0 -0 -0 -0 -0 -0 -0 -0 -0 -0 -0 -0
-0 -0 -0 -0 -0 -0 -0 -0 -0 -0 -0 -0 -0 -0 -0 -0 -0 -0 -0 -0 -0 -0
-0 -0 -0 -0 -0 -0 -0 -0 -0 -0 -0 -0 -0 -0 -0 -0 -0 -0 -0 -0 -0 -0
-0 -0 -0 -0 -0 -0 -0 -0 -0 -0 -0 -0 -0 -0 -0 -0 -0 -0 -0 -0 -0 -0
-0 -0 -0 -0 -0 -0 -0 -0 -0 -0 -0 -0 -0 -0 -0 -0 -0 -0 -0 -0 -0 -0
-0 -0 -0 -0 -0 -0 -0 -0 -0 -0 -0 -0 -0 -0 -0 -0 -0 -0 -0 -0 -0 -0
-0 -0 -0 -0 -0 -0 -0 -0 -0 -0 -0 -0 -0 -0 -0 -0 -0 -0 -0 -0 -0 -0
-0 -0 -0 -0 -0 -0 -0 -0 -0 -0 -0 -0 -0 -0 -0 -0 -0 -0 -0 -0 -0 -0
-0 -0 -0 -0 -0 -0 -0 -0 -0 -0 -0 -0 -0 -0 -0 -0 -0 -0 -0 -0 -0 -0
-0 -0 -0 -0 -0 -0 -0 -0 -0 -0 -0 -0 -0 -0 -0 -0 -0 -0 -0 -0 -0 -0
Wind_Speed
17 18 20 22 25 28 30 32 31 32 31 29 27 27 25 25 24 23 21 20 19 19
15 16 18 21 23 25 28 28 30 30 29 27 26 23 20 22 24 21 17 17 17 17
13 15 17 19 22 24 25 27 28 28 27 25 23 21 19 20 20 18 17 17 19 18
12 13 15 18 20 22 23 25 26 27 27 25 22 22 22 19 13 16 19 21 21 21
11 12 14 16 19 20 21 20 23 26 27 27 26 23 23 21 18 19 19 18 15 14
10 10 12 14 16 17 17 17 20 22 23 25 23 20 21 18 16 14 13 11 12 11
8 9 10 12 14 14 14 14 17 16 16 14 13 14 13 14 14 15 17 15 13 12
8 10 10 11 11 10 11 11 12 15 16 15 16 16 16 21 22 22 22 21 20 18
9 10 10 10 9 9 10 10 11 12 17 18 18 17 21 22 24 25 25 24 23 22
10 11 10 10 10 9 10 11 12 13 17 18 18 19 25 26 25 25 26 26 25 25
11 12 12 12 11 10 10 11 12 14 17 19 20 21 24 25 25 27 27 28 27 28
12 12 14 13 14 13 12 13 15 15 17 19 20 21 23 25 25 25 27 28 28 30
13 13 13 14 16 17 16 15 16 17 17 19 19 20 22 23 24 26 27 28 29 29
14 13 14 15 17 18 19 19 18 17 16 17 18 20 21 22 23 24 27 28 29 29
Wind_Direction
326 330 333 337 340 341 343 344 347 347 348 349 352 351 350 350 350 350 349 347 344 340
327 332 336 341 344 348 349 352 352 354 353 355 357 359 1 356 351 353 355 351 347 343
327 333 340 345 349 353 357 358 359 1 2 3 3 3 4 360 356 355 354 351 346 343
326 334 344 348 356 0 5 7 10 10 9 10 13 9 5 3 3 357 350 346 343 341
323 336 342 354 1 9 15 26 26 23 20 20 23 29 25 27 25 15 8 2 357 350
318 333 342 356 7 18 34 48 44 43 46 42 46 51 46 44 40 36 31 27 25 14
310 325 340 354 8 28 49 58 54 62 61 64 66 64 58 54 50 45 43 41 37 32
301 313 330 347 6 32 55 70 62 57 57 61 58 57 50 44 43 43 42 41 38 34
290 301 314 333 352 12 33 45 45 52 38 43 45 46 40 41 39 38 38 38 36 33
281 290 300 315 331 346 355 15 17 25 21 28 32 35 26 26 31 32 32 33 33 32
275 283 291 301 312 325 337 347 359 3 6 9 14 18 17 21 24 24 26 28 29 29
269 276 284 290 297 308 320 329 333 345 352 354 1 9 11 12 17 21 22 22 23 25
265 270 276 284 290 297 306 313 320 326 336 345 352 359 3 7 9 12 14 17 19 22
266 268 275 283 288 292 297 303 309 317 326 335 342 347 353 359 3 4 5 7 10 15